Regional Weather Roundup
Issued by NWS

Home | Current Version | Previous Version | Graphics & Text | Print | Product List | Glossary On
Versions: 1 2 3 4 5 6 7 8 9 10 11 12 13 14 15 16 17 18 19 20 21 22 23 24 25 26 27 28 29 30 31 32 33 34 35 36 37 38 39 40 41 42 43 44 45 46 47 48 49 50
000
ASUS43 KDMX 221507
RWRIA

WEATHER ROUNDUP FOR IOWA
NATIONAL WEATHER SERVICE DES MOINES IA
1000 AM CDT TUE JUL 22 2014

NOTE: "FAIR" INDICATES FEW OR NO CLOUDS BELOW 12,000 FEET WITH NO
SIGNIFICANT WEATHER AND/OR OBSTRUCTIONS TO VISIBILITY.

* - THESE STATIONS ARE NOT NWS STATIONS...THUS NOT UNDER NWS
QUALITY CONTROL.  THEY ALSO DO NOT REPORT WEATHER SUCH
AS PRECIPITATION OR FOG.

IAZ001>003-012>014-020>022-031>034-043>046-221600-
   NORTHWEST IOWA

CITY           SKY/WX    TMP DP  RH WIND       PRES   REMARKS
CARROLL *      SUNNY     81  73  78 NE8       29.98S HX  85
CHEROKEE *     MOSUNNY   79  66  65 N6        30.01R HX  81
DENISON *      SUNNY     79  68  69 VRB7G16   29.94F HX  81
LE MARS *      SUNNY     79  68  69 N9        30.04R HX  81
ORANGE CITY *  SUNNY     79  63  57 N9        30.05R HX  80
SHELDON *      SUNNY     75  66  73 N13       30.03R
SIOUX CITY     PTSUNNY   83  66  56 N3        30.00R HX  85
SPENCER        MOSUNNY   78  65  63 N18       30.00R HX  80
STORM LAKE *   SUNNY     79  68  69 E5        30.00R HX  81
$$

IAZ055>058-069>071-079>083-090>094-221600-
   SOUTHWEST IOWA

CITY           SKY/WX    TMP DP  RH WIND       PRES   REMARKS
ATLANTIC *     SUNNY     84  75  74 N8        29.97S HX  92
AUDUBON *      SUNNY     86  79  79 NE7       29.99S HX  99
CLARINDA *     SUNNY     84  75  74 W8        30.00S HX  92
COUNCIL BLFS * SUNNY     86  79  79 NE9G16    29.97S HX  99
CRESTON *      SUNNY     82  75  78 W12       30.01R HX  89
HARLAN  *      SUNNY     82  77  83 NE12      30.01S HX  91
LAMONI         MOSUNNY   81  75  82 W13       30.01R HX  87
RED OAK *      SUNNY     86  75  70 VRB5      29.98S HX  95
SHENANDOAH *   SUNNY     84  75  74 W6G13     29.98F HX  92
$$

IAZ047>049-059>061-072>074-084-221600-
   CENTRAL IOWA

CITY           SKY/WX    TMP DP  RH WIND       PRES   REMARKS
AMES           PTSUNNY   84  77  79 N14G25    29.95S HX  94
ANKENY *       SUNNY     86  77  74 NW12      29.95S HX  97
CHARITON *     SUNNY     81  75  83 SW9       29.99R HX  86
DES MOINES     PTSUNNY   86  76  71 W6        29.95R HX  96
GRINNELL*      CLOUDY    81  73  78 S8        29.99S HX  85
KNOXVILLE *    MOSUNNY   81  75  83 SW8       29.98R HX  86
MARSHALLTOWN   PTSUNNY   85  76  74 N7        29.95R HX  94
PELLA *        MOSUNNY   84  77  79 S3        30.00R HX  94
PERRY *        PTSUNNY   82  75  78 N9G16     29.97R HX  89
$$

IAZ004>006-015-016-023>025-035-036-221600-
   NORTH CENTRAL IOWA

CITY           SKY/WX    TMP DP  RH WIND       PRES   REMARKS
ALGONA *       SUNNY     79  66  65 NE9       29.94F HX  81
CLARION *      SUNNY     79  66  65 NE9       29.94F HX  81
ESTHERVILLE    MOSUNNY   75  65  70 N18       29.99R
FORT DODGE *   SUNNY     79  66  65 NE6       29.96F HX  81
MASON CITY     SUNNY     80  68  66 N8        29.94F HX  83
FOREST CITY *  SUNNY     79  66  65 NE5       29.91F HX  81
IOWA FALLS *   PTSUNNY   82  73  74 N9        29.97R HX  88
$$

IAZ007>011-017>019-026>030-037>042-050>054-066-221600-
   NORTHEAST IOWA

CITY           SKY/WX    TMP DP  RH WIND       PRES   REMARKS
CEDAR RAPIDS   MOSUNNY   81  72  74 SW15      29.98R HX  85
CHARLES CITY * MOSUNNY   82  75  78 N13G20    29.94F HX  89
DECORAH *      CLOUDY    79  75  89 VRB5      29.93F HX  82
DUBUQUE        SUNNY     80  73  79 SW17G23   29.97S HX  84
MONTICELLO *   MOSUNNY   82  75  78 W12G21    29.98R HX  89
OELWEIN *      CLOUDY    81  77  89 VRB6      29.97S HX  88
WATERLOO       CLOUDY    83  75  77 NW6       29.93F HX  90
$$

IAZ064-065-067-068-078-221600-
   EAST CENTRAL IOWA

CITY           SKY/WX    TMP DP  RH WIND       PRES   REMARKS
DAVENPORT      PTSUNNY   80  70  71 S12       29.98S HX  83
IOWA CITY      PTSUNNY   79  72  79 W10       30.00R HX  82
MT. PLEASANT * CLOUDY    75  68  78 SW9       29.94F
MUSCATINE *    SUNNY     79  72  78 S8        29.94F HX  82
QUAD CITIES    CLOUDY    79  70  74 SW9       29.97S HX  82
$$

IAZ062-063-075>077-085>089-095>099-221600-
   SOUTHEAST IOWA

CITY           SKY/WX    TMP DP  RH WIND       PRES   REMARKS
BURLINGTON     LGT RAIN  74  70  87 S15       29.98F
FAIRFIELD *    MOSUNNY   73  70  88 VRB6G14   30.01R
FORT MADISON * LGT RAIN  73  72  94 S9        30.02F
KEOKUK *       SUNNY     73  70  88 S10       30.02F
OSKALOOSA *      N/A     79  73  83 S9        30.02R HX  82
CENTERVILLE *  SUNNY     81  75  83 SW6       30.03R HX  86
OTTUMWA        CLOUDY    76  72  87 SW6       30.00R
WASHINGTON *   SUNNY     75  70  83 W14       29.99R
$$

ABBREVIATIONS USED IN REMARKS
   TC - TEMPERATURES IN CELSIUS
  WCI - WIND CHILL INDEX
   HX - HEAT INDEX
  VSB - VISIBILITY
$$




USA.gov is the U.S. government's official web portal to all federal, state and local government web resources and services.